Weather History for Wheeling, WV

Change the Weather History Date:

Friday, April 19, 2013

  Actual Average Record
Temperature  
Mean Temperature 56 °F 53 °F  
Max Temperature 71 °F 63 °F 82 °F (2002)
Min Temperature 41 °F 43 °F 22 °F (1953)
Degree Days  
Heating Degree Days 9 13  
Month to date heating degree days 237 299  
Since 1 July heating degree days 5135 5239  
Cooling Degree Days 0    
Month to date cooling degree days 20  
Year to date cooling degree days 20  
Growing Degree Days 7 (Base 50)    
Moisture  
Dew Point 45 °F    
Average Humidity 65    
Maximum Humidity 86    
Minimum Humidity 44    
Precipitation  
Precipitation 0.17 in 0.09 in 0.95 in (1998)
Month to date precipitation 1.33 1.90  
Sea Level Pressure  
Sea Level Pressure 29.67 in    
Wind  
Wind Speed 18 mph (SW)    
Max Wind Speed 31 mph    
Max Gust Speed 46 mph    
Visibility 9 miles    
Events Rain    
T = Trace of Precipitation, MM = Missing Value Source: NWS Daily Summary

Daily Weather History Graph

Daily Weather History Graph

Search for Another Location

Airport:

Trip Planner

Search our weather history database for the weather conditions in past years. The results will help you decide how hot, cold, wet, or windy it might be!

Date:

Astronomy

Apr. 19, 2013 Rise Set
Actual Time 6:38 AM EDT 8:05 PM EDT
Civil Twilight 6:09 AM EDT 8:34 PM EDT
Nautical Twilight 5:35 AM EDT 9:08 PM EDT
Astronomical Twilight 4:59 AM EDT 9:44 PM EDT
Moon 1:48 PM EDT (4/19) 2:53 AM EDT (4/19)
Length of Visible Light 14h 24m
Length of Day
13h 27m
First Quarter, 61% of the Moon is Illuminated
Apr 19
First Quarter
Apr 25
Full
May 2
Last Quarter
May 9
New
May 18
First Quarter

Hourly Weather History & Observations

Time (EDT) Temp. Windchill Dew Point Humidity Pressure Visibility Wind Dir Wind Speed Gust Speed Precip Events Conditions
12:53 AM 71.1 °F - 48.9 °F 45% 29.71 in 10.0 mi South 15.0 mph - N/A   Clear
1:53 AM 70.0 °F - 50.0 °F 49% 29.69 in 10.0 mi South 21.9 mph 29.9 mph N/A   Clear
2:53 AM 70.0 °F - 51.1 °F 51% 29.66 in 10.0 mi South 18.4 mph 23.0 mph N/A   Clear
3:53 AM 69.1 °F - 52.0 °F 54% 29.64 in 10.0 mi South 18.4 mph 25.3 mph N/A   Clear
4:53 AM 69.1 °F - 52.0 °F 54% 29.62 in 10.0 mi SSE 12.7 mph 19.6 mph N/A   Clear
5:53 AM 68.0 °F - 53.1 °F 59% 29.59 in 10.0 mi South 13.8 mph 23.0 mph N/A   Clear
6:53 AM 69.1 °F - 54.0 °F 58% 29.57 in 10.0 mi South 16.1 mph 27.6 mph N/A   Clear
7:53 AM 70.0 °F - 54.0 °F 57% 29.54 in 10.0 mi South 24.2 mph 32.2 mph N/A   Clear
8:53 AM 70.0 °F - 55.0 °F 59% 29.52 in 10.0 mi South 21.9 mph 33.4 mph 0.00 in Rain Light Rain
9:53 AM 66.9 °F - 57.0 °F 70% 29.51 in 10.0 mi South 23.0 mph 32.2 mph 0.01 in Rain Light Rain
10:53 AM 64.9 °F - 57.9 °F 78% 29.52 in 10.0 mi South 18.4 mph 26.5 mph 0.03 in Rain Light Rain
11:53 AM 66.9 °F - 57.9 °F 73% 29.50 in 9.0 mi SSW 18.4 mph 34.5 mph 0.01 in Rain Light Rain
11:58 AM 64.4 °F - 59.0 °F 83% 29.54 in 2.0 mi WSW 24.2 mph 36.8 mph 0.04 in Rain Heavy Rain
12:03 PM 62.6 °F - 57.2 °F 82% 29.56 in 1.5 mi West 28.8 mph 41.4 mph 0.05 in Rain Rain
12:09 PM 57.2 °F - 53.6 °F 88% 29.57 in 3.0 mi West 28.8 mph 42.6 mph 0.05 in Rain Light Rain
12:25 PM 53.6 °F - 48.2 °F 82% 29.59 in 10.0 mi West 23.0 mph 41.4 mph 0.05 in   Overcast
12:34 PM 51.8 °F - 48.2 °F 88% 29.60 in 10.0 mi WSW 23.0 mph 36.8 mph 0.05 in   Overcast
12:53 PM 51.1 °F - 46.0 °F 83% 29.61 in 10.0 mi West 24.2 mph 36.8 mph 0.05 in   Overcast
1:53 PM 46.9 °F - 43.0 °F 86% 29.64 in 3.0 mi West 24.2 mph 35.7 mph 0.03 in Rain Light Rain
2:08 PM 46.4 °F 39.2 °F 42.8 °F 87% 29.66 in 2.5 mi WSW 18.4 mph 31.1 mph 0.02 in Rain Rain
2:18 PM 46.4 °F 39.2 °F 44.6 °F 93% 29.66 in 8.0 mi WSW 18.4 mph 26.5 mph 0.03 in Rain Light Rain
2:41 PM 46.4 °F 39.2 °F 44.6 °F 93% 29.68 in 6.0 mi West 18.4 mph 26.5 mph 0.03 in Rain Light Rain
2:53 PM 46.0 °F 39.0 °F 42.1 °F 86% 29.69 in 10.0 mi West 17.3 mph 35.7 mph 0.04 in Rain Light Rain
3:09 PM 46.4 °F 38.7 °F 41.0 °F 81% 29.69 in 9.0 mi West 20.7 mph 31.1 mph 0.00 in Rain Light Rain
3:30 PM 46.4 °F 39.5 °F 39.2 °F 76% 29.71 in 10.0 mi WSW 17.3 mph 34.5 mph 0.00 in   Overcast
3:53 PM 46.9 °F - 37.9 °F 71% 29.71 in 10.0 mi WSW 18.4 mph 28.8 mph 0.00 in   Overcast
4:31 PM 46.4 °F 39.5 °F 37.4 °F 71% 29.73 in 10.0 mi WSW 17.3 mph 32.2 mph N/A   Overcast
4:53 PM 46.9 °F - 37.0 °F 68% 29.74 in 10.0 mi WSW 16.1 mph 24.2 mph N/A   Mostly Cloudy
5:01 PM 46.4 °F 38.3 °F 35.6 °F 66% 29.74 in 10.0 mi WSW 23.0 mph 31.1 mph N/A   Mostly Cloudy
5:53 PM 46.9 °F - 35.1 °F 63% 29.78 in 10.0 mi West 19.6 mph 25.3 mph N/A   Scattered Clouds
6:53 PM 48.0 °F - 33.1 °F 56% 29.78 in 10.0 mi West 12.7 mph 28.8 mph N/A   Scattered Clouds
7:53 PM 46.0 °F 40.6 °F 32.0 °F 58% 29.79 in 10.0 mi West 11.5 mph 24.2 mph N/A   Overcast
8:53 PM 44.1 °F 37.7 °F 30.0 °F 58% 29.83 in 10.0 mi West 12.7 mph 21.9 mph N/A   Overcast
9:53 PM 44.1 °F 36.8 °F 28.9 °F 55% 29.86 in 10.0 mi West 16.1 mph 33.4 mph N/A   Overcast
10:53 PM 43.0 °F 34.5 °F 28.0 °F 56% 29.88 in 10.0 mi West 19.6 mph 27.6 mph N/A   Overcast
11:53 PM 42.1 °F 33.9 °F 28.0 °F 58% 29.89 in 10.0 mi WSW 17.3 mph 25.3 mph N/A   Overcast